This is the latest recevied weather packets stored in our database for station/object KO6MEX-13. If no packets are shown the sender has not sent any weather packets the latest 10 day(s).
| Time | Temp. | Humidity | Pressure | Rain* | Wind** | Luminosity | Snow |
|---|---|---|---|---|---|---|---|
| 1777486599 | 20.56° C | 51% | 1020.3 hPa | 0 mm | - | 774 W/m² | - |
| 1777486297 | 20.56° C | 55% | 1020.4 hPa | 0 mm | - | 768 W/m² | - |
| 1777485995 | 20° C | 54% | 1020.2 hPa | 0 mm | - | 586 W/m² | - |
| 1777485691 | 20° C | 55% | 1020.5 hPa | 0 mm | - | 53 W/m² | - |
| 1777485386 | 20° C | 56% | 1020.4 hPa | 0 mm | - | 52 W/m² | - |
| 1777485082 | 20° C | 56% | 1020.5 hPa | 0 mm | - | 49 W/m² | - |
| 1777484780 | 19.44° C | 58% | 1020.9 hPa | 0 mm | - | 49 W/m² | - |
| 1777484476 | 19.44° C | 59% | 1020.7 hPa | 0 mm | - | 46 W/m² | - |
| 1777484173 | 19.44° C | 59% | 1020.6 hPa | 0 mm | - | 45 W/m² | - |
| 1777483869 | 18.89° C | 59% | 1020.6 hPa | 0 mm | - | 44 W/m² | - |
| 1777483566 | 19.44° C | 59% | 1020.7 hPa | 0 mm | - | 43 W/m² | - |
| 1777483261 | 18.89° C | 61% | 1020.6 hPa | 0 mm | - | 41 W/m² | - |
| 1777482957 | 18.89° C | 62% | 1020.4 hPa | 0 mm | - | 41 W/m² | - |
| 1777482653 | 18.33° C | 63% | 1020.5 hPa | 0 mm | - | 40 W/m² | - |
| 1777482350 | 18.33° C | 64% | 1020.4 hPa | 0 mm | - | 39 W/m² | - |
| 1777482047 | 18.33° C | 64% | 1020.7 hPa | 0 mm | - | 38 W/m² | - |
| 1777481745 | 18.33° C | 64% | 1020.7 hPa | 0 mm | - | 38 W/m² | - |
| 1777481442 | 18.33° C | 63% | 1020.7 hPa | 0 mm | - | 37 W/m² | - |
| 1777481138 | 18.89° C | 63% | 1020.5 hPa | 0 mm | - | 36 W/m² | - |
| 1777480835 | 18.89° C | 61% | 1020.6 hPa | 0 mm | - | 35 W/m² | - |
| 1777480532 | 18.89° C | 63% | 1020.5 hPa | 0 mm | - | 35 W/m² | - |
| 1777480228 | 18.89° C | 64% | 1020.5 hPa | 0 mm | - | 35 W/m² | - |
| 1777479925 | 18.89° C | 63% | 1020.8 hPa | 0 mm | - | 33 W/m² | - |
| 1777479622 | 19.44° C | 61% | 1020.5 hPa | 0 mm | - | 33 W/m² | - |
| 1777479320 | 19.44° C | 56% | 1020.7 hPa | 0 mm | - | 32 W/m² | - |
* Rain latest hour (hover to see other rain measurements)
** Current wind speed in m/s (hover to see current wind gust speed)